Time,TemperatureF,DewpointF,PressureIn,WindDirection,WindDirectionDegrees,WindSpeedMPH,WindSpeedGustMPH,Humidity,HourlyPrecipIn,Conditions,Clouds,dailyrainin,SoftwareType,DateUTC
2013-05-11 00:01:00,57.6,49.3,30.04,WSW,253,0.0,0.0,74,0.00,SCT,SCT,0.00,WeatherDisplay:10.34,2013-05-11 04:01:00,
2013-05-11 00:03:00,57.6,49.3,30.04,WSW,253,0.0,0.0,74,0.00,CLR,CLR,0.00,WeatherDisplay:10.34,2013-05-11 04:03:00,
2013-05-11 00:04:00,57.6,49.3,30.04,WSW,253,0.0,0.0,74,0.00,CLR,CLR,0.00,WeatherDisplay:10.34,2013-05-11 04:04:00,
2013-05-11 00:05:00,57.6,49.3,30.04,WSW,253,0.0,0.0,74,0.00,CLR,CLR,0.00,WeatherDisplay:10.34,2013-05-11 04:05:00,
2013-05-11 00:10:00,57.4,49.2,30.05,WSW,253,0.0,0.0,74,0.00,CLR,CLR,0.00,WeatherDisplay:10.34,2013-05-11 04:10:00,
2013-05-11 00:13:00,57.2,49.0,30.05,WSW,253,0.0,0.0,74,0.00,CLR,CLR,0.00,WeatherDisplay:10.34,2013-05-11 04:13:00,
2013-05-11 00:18:00,57.2,49.3,30.05,WSW,253,0.0,0.0,75,0.00,CLR,CLR,0.00,WeatherDisplay:10.34,2013-05-11 04:18:00,
2013-05-11 00:23:00,57.2,49.3,30.05,WSW,253,0.0,0.0,75,0.00,CLR,CLR,0.00,WeatherDisplay:10.34,2013-05-11 04:23:00,
2013-05-11 00:28:00,57.2,49.3,30.04,WSW,253,0.0,0.0,75,0.00,CLR,CLR,0.00,WeatherDisplay:10.34,2013-05-11 04:28:00,
2013-05-11 00:33:00,57.0,49.2,30.04,WSW,253,0.0,0.0,75,0.00,CLR,CLR,0.00,WeatherDisplay:10.34,2013-05-11 04:33:00,
2013-05-11 00:38:00,57.0,49.5,30.05,WSW,253,0.0,0.0,76,0.00,CLR,CLR,0.00,WeatherDisplay:10.34,2013-05-11 04:38:00,
2013-05-11 00:43:00,56.8,49.4,30.05,WSW,253,0.0,0.0,76,0.00,CLR,CLR,0.00,WeatherDisplay:10.34,2013-05-11 04:43:00,
2013-05-11 00:48:00,56.8,49.4,30.05,WSW,253,0.0,0.0,76,0.00,CLR,CLR,0.00,WeatherDisplay:10.34,2013-05-11 04:48:00,
2013-05-11 00:53:00,56.7,49.5,30.05,WSW,253,0.0,0.0,77,0.00,CLR,CLR,0.00,WeatherDisplay:10.34,2013-05-11 04:53:00,
2013-05-11 00:58:00,56.7,49.5,30.05,WSW,253,0.0,0.0,77,0.00,CLR,CLR,0.00,WeatherDisplay:10.34,2013-05-11 04:58:00,
2013-05-11 01:03:00,56.7,49.5,30.05,WSW,253,0.0,0.0,77,0.00,BKN,BKN,0.00,WeatherDisplay:10.34,2013-05-11 05:03:00,
2013-05-11 01:08:00,56.7,49.9,30.05,WSW,253,0.0,0.0,78,0.00,BKN,BKN,0.00,WeatherDisplay:10.34,2013-05-11 05:08:00,
2013-05-11 01:13:00,56.7,49.9,30.05,WSW,253,0.0,0.0,78,0.00,BKN,BKN,0.00,WeatherDisplay:10.34,2013-05-11 05:13:00,
2013-05-11 01:18:00,56.7,49.9,30.05,WSW,253,0.0,0.0,78,0.00,BKN,BKN,0.00,WeatherDisplay:10.34,2013-05-11 05:18:00,
2013-05-11 01:23:00,56.7,49.9,30.05,WSW,253,0.0,0.0,78,0.00,BKN,BKN,0.00,WeatherDisplay:10.34,2013-05-11 05:23:00,
2013-05-11 01:28:00,56.5,49.7,30.05,WSW,253,0.0,0.0,78,0.00,BKN,BKN,0.00,WeatherDisplay:10.34,2013-05-11 05:28:00,
2013-05-11 01:33:00,56.5,50.0,30.01,WSW,253,0.0,0.0,79,0.00,BKN,BKN,0.00,WeatherDisplay:10.34,2013-05-11 05:33:00,
2013-05-11 01:38:00,56.5,50.0,30.01,WSW,253,0.0,0.0,79,0.00,BKN,BKN,0.00,WeatherDisplay:10.34,2013-05-11 05:38:00,
2013-05-11 01:43:00,56.3,49.9,30.01,WSW,253,0.0,0.0,79,0.00,BKN,BKN,0.00,WeatherDisplay:10.34,2013-05-11 05:43:00,
2013-05-11 01:48:00,56.3,49.9,30.01,WSW,253,0.0,0.0,79,0.00,BKN,BKN,0.00,WeatherDisplay:10.34,2013-05-11 05:48:00,
2013-05-11 01:53:00,56.3,50.2,30.01,WSW,253,0.0,0.0,80,0.00,BKN,BKN,0.00,WeatherDisplay:10.34,2013-05-11 05:53:00,
2013-05-11 01:58:00,56.3,50.2,30.01,WSW,253,0.0,0.0,80,0.00,BKN,BKN,0.00,WeatherDisplay:10.34,2013-05-11 05:58:00,
2013-05-11 02:03:00,56.3,50.2,30.01,WSW,253,0.0,0.0,80,0.00,OVC,OVC,0.00,WeatherDisplay:10.34,2013-05-11 06:03:00,
2013-05-11 02:08:00,56.5,50.4,30.01,WSW,253,0.0,0.0,80,0.00,OVC,OVC,0.00,WeatherDisplay:10.34,2013-05-11 06:08:00,
2013-05-11 02:13:00,56.5,50.4,30.01,WSW,253,0.0,0.0,80,0.00,OVC,OVC,0.00,WeatherDisplay:10.34,2013-05-11 06:13:00,
2013-05-11 02:18:00,56.5,50.4,30.01,WSW,253,0.0,0.0,80,0.00,OVC,OVC,0.00,WeatherDisplay:10.34,2013-05-11 06:18:00,
2013-05-11 02:23:00,56.5,50.4,30.01,WSW,253,0.0,0.0,80,0.00,OVC,OVC,0.00,WeatherDisplay:10.34,2013-05-11 06:23:00,
2013-05-11 02:28:00,56.5,50.4,30.01,WSW,253,0.0,0.0,80,0.00,OVC,OVC,0.00,WeatherDisplay:10.34,2013-05-11 06:28:00,
2013-05-11 02:33:00,56.5,50.7,30.01,WSW,253,0.0,0.0,81,0.00,OVC,OVC,0.00,WeatherDisplay:10.34,2013-05-11 06:33:00,
2013-05-11 02:38:00,56.5,50.4,30.01,WSW,253,0.0,0.0,80,0.00,OVC,OVC,0.00,WeatherDisplay:10.34,2013-05-11 06:38:00,
2013-05-11 02:43:00,56.3,50.5,30.01,WSW,253,0.0,0.0,81,0.00,OVC,OVC,0.00,WeatherDisplay:10.34,2013-05-11 06:43:00,
2013-05-11 02:48:00,56.3,50.5,30.01,WSW,253,0.0,0.0,81,0.00,OVC,OVC,0.00,WeatherDisplay:10.34,2013-05-11 06:48:00,
2013-05-11 02:53:00,56.3,50.5,30.01,WSW,253,0.0,0.0,81,0.00,OVC,OVC,0.00,WeatherDisplay:10.34,2013-05-11 06:53:00,
2013-05-11 02:58:00,56.3,50.5,30.01,WSW,253,0.0,0.0,81,0.00,OVC,OVC,0.00,WeatherDisplay:10.34,2013-05-11 06:58:00,
2013-05-11 03:03:00,56.3,50.5,29.98,WSW,253,0.0,0.0,81,0.00,OVC,OVC,0.00,WeatherDisplay:10.34,2013-05-11 07:03:00,
2013-05-11 03:08:00,56.3,50.9,29.98,WSW,253,0.0,0.0,82,0.00,OVC,OVC,0.00,WeatherDisplay:10.34,2013-05-11 07:08:00,
2013-05-11 03:13:00,56.3,50.9,29.98,WSW,253,0.0,0.0,82,0.00,OVC,OVC,0.00,WeatherDisplay:10.34,2013-05-11 07:13:00,
2013-05-11 03:18:00,56.3,50.9,29.98,WSW,253,0.0,0.0,82,0.00,OVC,OVC,0.00,WeatherDisplay:10.34,2013-05-11 07:18:00,
2013-05-11 03:23:00,56.1,50.7,29.98,WSW,253,0.0,0.0,82,0.00,OVC,OVC,0.00,WeatherDisplay:10.34,2013-05-11 07:23:00,
2013-05-11 03:28:00,56.1,50.7,29.98,WSW,253,0.0,0.0,82,0.00,OVC,OVC,0.00,WeatherDisplay:10.34,2013-05-11 07:28:00,
2013-05-11 03:33:00,56.1,51.0,29.98,WSW,253,0.0,0.0,83,0.00,OVC,OVC,0.00,WeatherDisplay:10.34,2013-05-11 07:33:00,
2013-05-11 03:38:00,55.9,50.9,29.98,WSW,253,0.0,0.0,83,0.00,OVC,OVC,0.00,WeatherDisplay:10.34,2013-05-11 07:38:00,
2013-05-11 03:43:00,55.9,50.9,29.98,WSW,253,0.0,0.0,83,0.00,OVC,OVC,0.00,WeatherDisplay:10.34,2013-05-11 07:43:00,
2013-05-11 03:48:00,55.9,50.9,29.98,WSW,253,0.0,0.0,83,0.00,OVC,OVC,0.00,WeatherDisplay:10.34,2013-05-11 07:48:00,
2013-05-11 03:53:00,55.8,50.7,29.98,WSW,253,0.0,0.0,83,0.00,OVC,OVC,0.00,WeatherDisplay:10.34,2013-05-11 07:53:00,
2013-05-11 03:58:00,55.8,51.0,29.98,WSW,253,0.0,0.0,84,0.00,OVC,OVC,0.00,WeatherDisplay:10.34,2013-05-11 07:58:00,
2013-05-11 04:03:00,55.6,50.8,29.95,WSW,253,0.0,0.0,84,0.00,OVC,OVC,0.00,WeatherDisplay:10.34,2013-05-11 08:03:00,
2013-05-11 04:08:00,55.6,50.8,29.95,WSW,253,0.0,0.0,84,0.00,OVC,OVC,0.00,WeatherDisplay:10.34,2013-05-11 08:08:00,
2013-05-11 04:13:00,55.8,51.0,29.95,WSW,253,0.0,0.0,84,0.00,OVC,OVC,0.00,WeatherDisplay:10.34,2013-05-11 08:13:00,
2013-05-11 04:18:00,55.6,50.8,29.95,WSW,253,0.0,0.0,84,0.00,OVC,OVC,0.00,WeatherDisplay:10.34,2013-05-11 08:18:00,
2013-05-11 04:23:00,55.6,51.1,29.95,WSW,253,0.0,0.0,85,0.00,OVC,OVC,0.00,WeatherDisplay:10.34,2013-05-11 08:23:00,
2013-05-11 04:28:00,55.6,51.1,29.95,WSW,253,0.0,0.0,85,0.00,OVC,OVC,0.00,WeatherDisplay:10.34,2013-05-11 08:28:00,
2013-05-11 04:33:00,55.8,51.3,29.95,WSW,253,0.0,0.0,85,0.00,OVC,OVC,0.00,WeatherDisplay:10.34,2013-05-11 08:33:00,
2013-05-11 04:38:00,55.6,51.1,29.95,WSW,253,0.0,0.0,85,0.00,OVC,OVC,0.00,WeatherDisplay:10.34,2013-05-11 08:38:00,
2013-05-11 04:43:00,55.6,51.1,29.95,WSW,253,0.0,0.0,85,0.00,OVC,OVC,0.00,WeatherDisplay:10.34,2013-05-11 08:43:00,
2013-05-11 04:48:00,55.6,51.1,29.95,WSW,253,0.0,0.0,85,0.00,OVC,OVC,0.00,WeatherDisplay:10.34,2013-05-11 08:48:00,
2013-05-11 04:53:00,55.6,51.1,29.95,WSW,253,0.0,0.0,85,0.00,OVC,OVC,0.00,WeatherDisplay:10.34,2013-05-11 08:53:00,
2013-05-11 04:58:00,55.4,51.0,29.95,WSW,253,0.0,0.0,85,0.00,OVC,OVC,0.00,WeatherDisplay:10.34,2013-05-11 08:58:00,
2013-05-11 05:03:00,55.4,51.0,29.95,WSW,253,0.0,0.0,85,0.00,BKN,BKN,0.00,WeatherDisplay:10.34,2013-05-11 09:03:00,
2013-05-11 05:08:00,55.4,51.0,29.95,WSW,253,0.0,0.0,85,0.00,BKN,BKN,0.00,WeatherDisplay:10.34,2013-05-11 09:08:00,
2013-05-11 05:13:00,55.2,50.8,29.95,WSW,253,0.0,0.0,85,0.00,BKN,BKN,0.00,WeatherDisplay:10.34,2013-05-11 09:13:00,
2013-05-11 05:18:00,55.0,50.6,29.95,WSW,253,0.0,0.0,85,0.00,BKN,BKN,0.00,WeatherDisplay:10.34,2013-05-11 09:18:00,
2013-05-11 05:23:00,55.0,50.6,29.95,WSW,253,0.0,0.0,85,0.00,BKN,BKN,0.00,WeatherDisplay:10.34,2013-05-11 09:23:00,
2013-05-11 05:28:00,54.9,50.4,29.95,WSW,253,0.0,0.0,85,0.00,BKN,BKN,0.00,WeatherDisplay:10.34,2013-05-11 09:28:00,
2013-05-11 05:33:00,54.9,50.4,29.95,WSW,253,0.0,0.0,85,0.00,BKN,BKN,0.00,WeatherDisplay:10.34,2013-05-11 09:33:00,
2013-05-11 05:38:00,54.7,50.3,29.95,WSW,253,0.0,0.0,85,0.00,BKN,BKN,0.00,WeatherDisplay:10.34,2013-05-11 09:38:00,
2013-05-11 05:43:00,54.7,50.3,29.95,WSW,253,0.0,0.0,85,0.00,BKN,BKN,0.00,WeatherDisplay:10.34,2013-05-11 09:43:00,
2013-05-11 05:48:00,54.7,50.6,29.95,WSW,253,0.0,0.0,86,0.00,BKN,BKN,0.00,WeatherDisplay:10.34,2013-05-11 09:48:00,
2013-05-11 05:53:00,54.7,50.6,29.95,WSW,253,0.0,0.0,86,0.00,BKN,BKN,0.00,WeatherDisplay:10.34,2013-05-11 09:53:00,
2013-05-11 05:58:00,54.7,50.6,29.95,WSW,253,0.0,0.0,86,0.00,BKN,BKN,0.00,WeatherDisplay:10.34,2013-05-11 09:58:00,
2013-05-11 06:03:00,54.5,50.4,29.92,WSW,253,0.0,0.0,86,0.00,BKN,BKN,0.00,WeatherDisplay:10.34,2013-05-11 10:03:00,
2013-05-11 06:08:00,54.5,50.7,29.92,WSW,253,0.0,0.0,87,0.00,BKN,BKN,0.00,WeatherDisplay:10.34,2013-05-11 10:08:00,
2013-05-11 06:13:00,54.5,50.7,29.92,WSW,253,0.0,0.0,87,0.00,BKN,BKN,0.00,WeatherDisplay:10.34,2013-05-11 10:13:00,
2013-05-11 06:18:00,54.7,50.9,29.92,WSW,253,0.0,0.0,87,0.00,BKN,BKN,0.00,WeatherDisplay:10.34,2013-05-11 10:18:00,
2013-05-11 06:23:00,54.7,51.2,29.92,WSW,253,0.0,0.0,88,0.00,BKN,BKN,0.00,WeatherDisplay:10.34,2013-05-11 10:23:00,
2013-05-11 06:28:00,54.9,51.4,29.92,WSW,253,0.0,0.0,88,0.00,BKN,BKN,0.00,WeatherDisplay:10.34,2013-05-11 10:28:00,
2013-05-11 06:33:00,54.9,51.4,29.95,WSW,253,0.0,0.0,88,0.00,BKN,BKN,0.00,WeatherDisplay:10.34,2013-05-11 10:33:00,
2013-05-11 06:38:00,54.9,51.4,29.95,WSW,253,0.0,0.0,88,0.00,BKN,BKN,0.00,WeatherDisplay:10.34,2013-05-11 10:38:00,
2013-05-11 06:43:00,55.0,51.5,29.95,WSW,253,0.0,0.0,88,0.00,BKN,BKN,0.00,WeatherDisplay:10.34,2013-05-11 10:43:00,
2013-05-11 06:48:00,55.0,51.9,29.95,WSW,253,0.0,0.0,89,0.00,BKN,BKN,0.00,WeatherDisplay:10.34,2013-05-11 10:48:00,
2013-05-11 06:53:00,55.0,51.9,29.96,WSW,253,0.0,0.0,89,0.00,BKN,BKN,0.00,WeatherDisplay:10.34,2013-05-11 10:53:00,
2013-05-11 06:58:00,55.2,52.0,29.96,WSW,253,0.0,0.0,89,0.00,BKN,BKN,0.00,WeatherDisplay:10.34,2013-05-11 10:58:00,
2013-05-11 07:03:00,55.2,52.0,29.96,WSW,253,0.0,0.0,89,0.00,OVC,OVC,0.00,WeatherDisplay:10.34,2013-05-11 11:03:00,
2013-05-11 07:08:00,55.2,52.0,29.96,WSW,253,0.0,0.0,89,0.00,OVC,OVC,0.00,WeatherDisplay:10.34,2013-05-11 11:08:00,
2013-05-11 07:13:00,55.2,52.0,29.96,WSW,253,0.0,0.0,89,0.00,OVC,OVC,0.00,WeatherDisplay:10.34,2013-05-11 11:13:00,
2013-05-11 07:18:00,55.2,52.0,29.93,WSW,253,0.0,0.0,89,0.00,OVC,OVC,0.00,WeatherDisplay:10.34,2013-05-11 11:18:00,
2013-05-11 07:23:00,55.2,52.0,29.93,WSW,253,0.0,0.0,89,0.00,OVC,OVC,0.00,WeatherDisplay:10.34,2013-05-11 11:23:00,
2013-05-11 07:28:00,55.0,51.9,29.93,WSW,253,0.0,0.0,89,0.00,OVC,OVC,0.00,WeatherDisplay:10.34,2013-05-11 11:28:00,
2013-05-11 07:33:00,54.9,51.7,29.93,WSW,253,0.0,0.0,89,0.00,OVC,OVC,0.00,WeatherDisplay:10.34,2013-05-11 11:33:00,
2013-05-11 07:38:00,54.9,51.7,29.93,WSW,253,0.0,0.0,89,0.00,OVC,OVC,0.00,WeatherDisplay:10.34,2013-05-11 11:38:00,
2013-05-11 07:43:00,54.7,51.5,29.93,WSW,253,0.0,0.0,89,0.00,OVC,OVC,0.00,WeatherDisplay:10.34,2013-05-11 11:43:00,
2013-05-11 07:48:00,54.7,51.5,29.93,WSW,253,0.0,0.0,89,0.00,OVC,OVC,0.00,WeatherDisplay:10.34,2013-05-11 11:48:00,
2013-05-11 07:53:00,54.9,51.7,29.93,WSW,253,0.0,0.0,89,0.00,OVC,OVC,0.00,WeatherDisplay:10.34,2013-05-11 11:53:00,
2013-05-11 07:58:00,54.9,52.0,29.93,WSW,253,0.0,0.0,90,0.00,OVC,OVC,0.00,WeatherDisplay:10.34,2013-05-11 11:58:00,
2013-05-11 08:03:00,54.9,52.0,29.93,WSW,253,0.0,0.0,90,0.00,OVC,OVC,0.00,WeatherDisplay:10.34,2013-05-11 12:03:00,
2013-05-11 08:08:00,55.0,52.2,29.93,WSW,253,0.0,0.0,90,0.00,OVC,OVC,0.00,WeatherDisplay:10.34,2013-05-11 12:08:00,
2013-05-11 08:13:00,55.2,52.3,29.93,WSW,253,0.0,0.0,90,0.00,OVC,OVC,0.00,WeatherDisplay:10.34,2013-05-11 12:13:00,
2013-05-11 08:18:00,55.4,52.5,29.93,WSW,253,0.0,0.0,90,0.00,OVC,OVC,0.00,WeatherDisplay:10.34,2013-05-11 12:18:00,
2013-05-11 08:23:00,55.4,52.5,29.93,WSW,253,0.0,0.0,90,0.00,OVC,OVC,0.00,WeatherDisplay:10.34,2013-05-11 12:23:00,
2013-05-11 08:28:00,55.4,52.5,29.93,WSW,253,0.0,0.0,90,0.00,OVC,OVC,0.00,WeatherDisplay:10.34,2013-05-11 12:28:00,
2013-05-11 08:33:00,55.8,52.9,29.93,WSW,253,0.0,0.0,90,0.00,OVC,OVC,0.00,WeatherDisplay:10.34,2013-05-11 12:33:00,
2013-05-11 08:38:00,55.8,52.9,29.93,WSW,253,0.0,0.0,90,0.00,OVC,OVC,0.00,WeatherDisplay:10.34,2013-05-11 12:38:00,
2013-05-11 08:43:00,55.9,53.4,29.93,WSW,253,0.0,0.0,91,0.00,OVC,OVC,0.00,WeatherDisplay:10.34,2013-05-11 12:43:00,
2013-05-11 08:48:00,56.3,53.7,29.93,SSW,198,0.0,0.0,91,0.00,OVC,OVC,0.00,WeatherDisplay:10.34,2013-05-11 12:48:00,
2013-05-11 08:53:00,56.5,53.9,29.93,South,188,3.0,7.0,91,0.00,OVC,OVC,0.00,WeatherDisplay:10.34,2013-05-11 12:53:00,
2013-05-11 08:58:00,56.8,54.5,29.93,SW,228,4.0,6.0,92,0.00,OVC,OVC,0.00,WeatherDisplay:10.34,2013-05-11 12:58:00,
2013-05-11 09:03:00,56.8,54.5,29.93,West,279,0.0,3.0,92,0.00,BKN,BKN,0.00,WeatherDisplay:10.34,2013-05-11 13:03:00,
2013-05-11 09:08:00,57.0,55.0,29.93,SW,227,3.0,5.0,93,0.00,BKN,BKN,0.00,WeatherDisplay:10.34,2013-05-11 13:08:00,
2013-05-11 09:13:00,57.2,55.2,29.93,WSW,248,4.0,6.0,93,0.00,BKN,BKN,0.00,WeatherDisplay:10.34,2013-05-11 13:13:00,
2013-05-11 09:18:00,57.6,55.6,29.90,WSW,248,0.0,5.0,93,0.00,BKN,BKN,0.00,WeatherDisplay:10.34,2013-05-11 13:18:00,
2013-05-11 09:23:00,57.7,56.0,29.90,SW,235,0.0,7.0,94,0.00,BKN,BKN,0.00,WeatherDisplay:10.34,2013-05-11 13:23:00,
2013-05-11 09:28:00,57.7,56.0,29.90,WSW,257,0.0,5.0,94,0.00,BKN,BKN,0.00,WeatherDisplay:10.34,2013-05-11 13:28:00,
2013-05-11 09:33:00,57.9,56.2,29.90,West,272,3.0,7.0,94,0.00,BKN,BKN,0.00,WeatherDisplay:10.34,2013-05-11 13:33:00,
2013-05-11 09:38:00,58.3,56.6,29.90,WSW,256,3.0,5.0,94,0.00,BKN,BKN,0.00,WeatherDisplay:10.34,2013-05-11 13:38:00,
2013-05-11 09:43:00,58.3,56.6,29.90,South,188,3.0,6.0,94,0.00,BKN,BKN,0.00,WeatherDisplay:10.34,2013-05-11 13:43:00,
2013-05-11 09:48:00,58.5,56.7,29.90,WNW,293,3.0,5.0,94,0.00,BKN,BKN,0.00,WeatherDisplay:10.34,2013-05-11 13:48:00,
2013-05-11 09:53:00,58.5,56.7,29.90,SW,228,5.0,9.0,94,0.00,BKN,BKN,0.00,WeatherDisplay:10.34,2013-05-11 13:53:00,
2013-05-11 09:58:00,58.6,56.9,29.90,SSW,203,0.0,0.0,94,0.00,BKN,BKN,0.00,WeatherDisplay:10.34,2013-05-11 13:58:00,
2013-05-11 10:03:00,58.6,56.9,29.90,SSW,203,0.0,0.0,94,0.00,OVC,OVC,0.00,WeatherDisplay:10.34,2013-05-11 14:03:00,
2013-05-11 10:08:00,58.8,57.1,29.90,SW,231,3.0,6.0,94,0.00,OVC,OVC,0.00,WeatherDisplay:10.34,2013-05-11 14:08:00,
2013-05-11 10:13:00,58.8,57.1,29.90,SSW,202,3.0,5.0,94,0.00,OVC,OVC,0.00,WeatherDisplay:10.34,2013-05-11 14:13:00,
2013-05-11 10:18:00,59.2,57.7,29.90,SW,232,0.0,3.0,95,0.00,OVC,OVC,0.00,WeatherDisplay:10.34,2013-05-11 14:18:00,
2013-05-11 10:23:00,59.5,58.1,29.90,SSE,147,4.0,5.0,95,0.00,OVC,OVC,0.00,WeatherDisplay:10.34,2013-05-11 14:23:00,
2013-05-11 10:28:00,59.9,58.5,29.90,WNW,298,4.0,7.0,95,0.00,OVC,OVC,0.00,WeatherDisplay:10.34,2013-05-11 14:28:00,
2013-05-11 10:33:00,60.6,59.2,29.90,SSW,193,5.0,6.0,95,0.00,OVC,OVC,0.00,WeatherDisplay:10.34,2013-05-11 14:33:00,
2013-05-11 10:38:00,60.8,59.4,29.90,SSW,213,3.0,6.0,95,0.00,OVC,OVC,0.00,WeatherDisplay:10.34,2013-05-11 14:38:00,
2013-05-11 10:43:00,61.0,59.2,29.90,WSW,251,3.0,6.0,94,0.00,OVC,OVC,0.00,WeatherDisplay:10.34,2013-05-11 14:43:00,
2013-05-11 10:48:00,61.2,59.4,29.90,WNW,283,0.0,13.0,94,0.00,OVC,OVC,0.00,WeatherDisplay:10.34,2013-05-11 14:48:00,
2013-05-11 10:53:00,61.7,59.7,29.90,WNW,283,3.0,6.0,93,0.00,OVC,OVC,0.00,WeatherDisplay:10.34,2013-05-11 14:53:00,
2013-05-11 10:58:00,62.4,60.4,29.90,SW,217,7.0,12.0,93,0.00,OVC,OVC,0.00,WeatherDisplay:10.34,2013-05-11 14:58:00,
2013-05-11 11:03:00,62.6,60.2,29.90,WSW,240,3.0,10.0,92,0.00,BKN,BKN,0.00,WeatherDisplay:10.34,2013-05-11 15:03:00,
2013-05-11 11:08:00,62.4,59.1,29.90,South,170,9.0,14.0,89,0.00,BKN,BKN,0.00,WeatherDisplay:10.34,2013-05-11 15:08:00,
2013-05-11 11:13:00,62.4,58.2,29.90,South,171,10.0,14.0,86,0.00,BKN,BKN,0.00,WeatherDisplay:10.34,2013-05-11 15:13:00,
2013-05-11 11:18:00,62.2,57.0,29.90,SW,227,4.0,7.0,83,0.00,BKN,BKN,0.00,WeatherDisplay:10.34,2013-05-11 15:18:00,
2013-05-11 11:23:00,62.2,57.0,29.90,SSW,194,8.0,9.0,83,0.00,BKN,BKN,0.00,WeatherDisplay:10.34,2013-05-11 15:23:00,
2013-05-11 11:28:00,62.4,57.2,29.90,WNW,302,4.0,5.0,83,0.00,BKN,BKN,0.00,WeatherDisplay:10.34,2013-05-11 15:28:00,
2013-05-11 11:33:00,62.8,57.5,29.90,SSW,195,9.0,15.0,83,0.00,BKN,BKN,0.00,WeatherDisplay:10.34,2013-05-11 15:33:00,
2013-05-11 11:38:00,62.8,57.5,29.90,WNW,293,6.0,9.0,83,0.00,BKN,BKN,0.00,WeatherDisplay:10.34,2013-05-11 15:38:00,
2013-05-11 11:43:00,62.8,57.2,29.90,South,186,8.0,14.0,82,0.00,BKN,BKN,0.00,WeatherDisplay:10.34,2013-05-11 15:43:00,
2013-05-11 11:48:00,63.0,57.4,29.90,South,174,4.0,9.0,82,0.00,BKN,BKN,0.00,WeatherDisplay:10.34,2013-05-11 15:48:00,
2013-05-11 11:54:00,63.9,57.9,29.86,SSW,200,6.0,14.0,81,0.00,BKN,BKN,0.00,WeatherDisplay:10.34,2013-05-11 15:54:00,
2013-05-11 11:59:00,64.0,57.4,29.86,WSW,243,9.0,13.0,79,0.00,BKN,BKN,0.00,WeatherDisplay:10.34,2013-05-11 15:59:00,
2013-05-11 12:04:00,64.0,56.7,29.86,South,186,7.0,13.0,77,0.00,OVC,OVC,0.00,WeatherDisplay:10.34,2013-05-11 16:04:00,
2013-05-11 12:09:00,63.9,56.5,29.86,WSW,238,4.0,8.0,77,0.00,OVC,OVC,0.00,WeatherDisplay:10.34,2013-05-11 16:09:00,
2013-05-11 12:14:00,63.5,56.2,29.86,SSW,197,3.0,6.0,77,0.00,OVC,OVC,0.00,WeatherDisplay:10.34,2013-05-11 16:14:00,
2013-05-11 12:19:00,63.1,55.8,29.86,WSW,237,0.0,7.0,77,0.00,OVC,OVC,0.00,WeatherDisplay:10.34,2013-05-11 16:19:00,
2013-05-11 12:24:00,63.0,56.0,29.87,West,265,6.0,10.0,78,0.00,OVC,OVC,0.00,WeatherDisplay:10.34,2013-05-11 16:24:00,
2013-05-11 12:29:00,63.0,56.0,29.87,WSW,256,4.0,8.0,78,0.00,OVC,OVC,0.00,WeatherDisplay:10.34,2013-05-11 16:29:00,
2013-05-11 12:34:00,63.0,56.3,29.87,NNE,30,0.0,3.0,79,0.00,OVC,OVC,0.00,WeatherDisplay:10.34,2013-05-11 16:34:00,
2013-05-11 12:39:00,63.1,56.5,29.87,NNW,341,8.0,20.0,79,0.00,OVC,OVC,0.00,WeatherDisplay:10.34,2013-05-11 16:39:00,
2013-05-11 12:44:00,63.3,56.7,29.87,West,263,10.0,17.0,79,0.00,OVC,OVC,0.00,WeatherDisplay:10.34,2013-05-11 16:44:00,
2013-05-11 12:49:00,63.5,56.9,29.87,SSW,194,3.0,6.0,79,0.00,OVC,OVC,0.00,WeatherDisplay:10.34,2013-05-11 16:49:00,
2013-05-11 12:54:00,63.5,56.5,29.87,SW,225,5.0,9.0,78,0.00,OVC,OVC,0.00,WeatherDisplay:10.34,2013-05-11 16:54:00,
2013-05-11 12:59:00,63.5,56.5,29.87,SW,229,5.0,9.0,78,0.00,OVC,OVC,0.00,WeatherDisplay:10.34,2013-05-11 16:59:00,
2013-05-11 13:04:00,63.5,56.5,29.87,WSW,242,0.0,2.0,78,0.00,OVC,OVC,0.00,WeatherDisplay:10.34,2013-05-11 17:04:00,
2013-05-11 13:09:00,63.5,56.9,29.87,NNE,19,7.0,12.0,79,0.00,OVC,OVC,0.00,WeatherDisplay:10.34,2013-05-11 17:09:00,
2013-05-11 13:14:00,63.5,56.5,29.87,WSW,248,8.0,13.0,78,0.00,OVC,OVC,0.00,WeatherDisplay:10.34,2013-05-11 17:14:00,
2013-05-11 13:19:00,63.7,56.7,29.87,SSE,162,6.0,8.0,78,0.00,OVC,OVC,0.00,WeatherDisplay:10.34,2013-05-11 17:19:00,
2013-05-11 13:24:00,63.7,56.7,29.87,South,178,4.0,10.0,78,0.00,OVC,OVC,0.00,WeatherDisplay:10.34,2013-05-11 17:24:00,
2013-05-11 13:29:00,63.5,56.2,29.87,WSW,239,5.0,7.0,77,0.00,OVC,OVC,0.00,WeatherDisplay:10.34,2013-05-11 17:29:00,
2013-05-11 13:34:00,63.3,56.3,29.87,West,275,4.0,7.0,78,0.00,OVC,OVC,0.00,WeatherDisplay:10.34,2013-05-11 17:34:00,
2013-05-11 13:39:00,63.1,56.2,29.87,SW,225,4.0,6.0,78,0.00,OVC,OVC,0.00,WeatherDisplay:10.34,2013-05-11 17:39:00,
2013-05-11 13:44:00,63.0,56.3,29.87,SSE,154,0.0,5.0,79,0.00,OVC,OVC,0.00,WeatherDisplay:10.34,2013-05-11 17:44:00,
2013-05-11 13:49:00,62.8,56.2,29.87,SW,216,4.0,10.0,79,0.00,OVC,OVC,0.00,WeatherDisplay:10.34,2013-05-11 17:49:00,
2013-05-11 13:54:00,62.6,56.3,29.87,SSW,198,3.0,5.0,80,0.00,OVC,OVC,0.00,WeatherDisplay:10.34,2013-05-11 17:54:00,
2013-05-11 13:59:00,62.6,56.7,29.87,SSW,192,4.0,7.0,81,0.00,OVC,OVC,0.00,WeatherDisplay:10.34,2013-05-11 17:59:00,
2013-05-11 14:04:00,62.8,56.9,29.87,South,179,3.0,7.0,81,0.00,OVC,OVC,0.00,WeatherDisplay:10.34,2013-05-11 18:04:00,
2013-05-11 14:09:00,62.8,56.9,29.87,South,176,5.0,9.0,81,0.00,OVC,OVC,0.00,WeatherDisplay:10.34,2013-05-11 18:09:00,
2013-05-11 14:14:00,62.8,56.9,29.87,SSW,212,4.0,6.0,81,0.00,OVC,OVC,0.00,WeatherDisplay:10.34,2013-05-11 18:14:00,
2013-05-11 14:19:00,62.6,56.7,29.87,SW,227,4.0,6.0,81,0.00,OVC,OVC,0.00,WeatherDisplay:10.34,2013-05-11 18:19:00,
2013-05-11 14:24:00,62.6,57.0,29.87,West,261,4.0,8.0,82,0.00,OVC,OVC,0.00,WeatherDisplay:10.34,2013-05-11 18:24:00,
2013-05-11 14:29:00,62.4,56.9,29.87,WNW,298,5.0,7.0,82,0.00,OVC,OVC,0.00,WeatherDisplay:10.34,2013-05-11 18:29:00,
2013-05-11 14:34:00,62.4,57.2,29.87,South,182,4.0,6.0,83,0.00,OVC,OVC,0.00,WeatherDisplay:10.34,2013-05-11 18:34:00,
2013-05-11 14:39:00,62.4,57.2,29.87,South,175,4.0,6.0,83,0.00,OVC,OVC,0.00,WeatherDisplay:10.34,2013-05-11 18:39:00,
2013-05-11 14:44:00,62.2,57.0,29.87,South,182,3.0,5.0,83,0.00,OVC,OVC,0.00,WeatherDisplay:10.34,2013-05-11 18:44:00,
2013-05-11 14:49:00,62.1,57.5,29.87,WSW,242,3.0,6.0,85,0.00,OVC,OVC,0.00,WeatherDisplay:10.34,2013-05-11 18:49:00,
2013-05-11 14:54:00,61.7,57.8,29.87,NNW,327,0.0,3.0,87,0.00,OVC,OVC,0.00,WeatherDisplay:10.34,2013-05-11 18:54:00,
2013-05-11 14:59:00,61.7,58.1,29.87,SSE,151,4.0,6.0,88,0.00,OVC,OVC,0.00,WeatherDisplay:10.34,2013-05-11 18:59:00,
2013-05-11 15:04:00,61.5,58.2,29.84,WNW,296,3.0,6.0,89,0.00,OVC,OVC,0.00,WeatherDisplay:10.34,2013-05-11 19:04:00,
2013-05-11 15:09:00,61.3,58.4,29.84,NNW,330,3.0,8.0,90,0.00,OVC,OVC,0.00,WeatherDisplay:10.34,2013-05-11 19:09:00,
2013-05-11 15:14:00,61.3,58.7,29.84,South,174,4.0,7.0,91,0.00,OVC,OVC,0.00,WeatherDisplay:10.34,2013-05-11 19:14:00,
2013-05-11 15:19:00,61.3,59.0,29.84,NNW,327,4.0,7.0,92,0.00,OVC,OVC,0.00,WeatherDisplay:10.34,2013-05-11 19:19:00,
2013-05-11 15:24:00,61.3,59.0,29.84,WSW,237,4.0,10.0,92,0.00,OVC,OVC,0.00,WeatherDisplay:10.34,2013-05-11 19:24:00,
2013-05-11 15:29:00,61.3,59.3,29.84,South,190,5.0,8.0,93,0.00,OVC,OVC,0.00,WeatherDisplay:10.34,2013-05-11 19:29:00,
2013-05-11 15:34:00,61.3,59.3,29.84,SW,223,4.0,7.0,93,0.00,OVC,OVC,0.00,WeatherDisplay:10.34,2013-05-11 19:34:00,
2013-05-11 15:39:00,61.5,59.8,29.84,WNW,300,4.0,7.0,94,0.00,OVC,OVC,0.00,WeatherDisplay:10.34,2013-05-11 19:39:00,
2013-05-11 15:44:00,61.5,59.8,29.84,SW,216,3.0,6.0,94,0.00,OVC,OVC,0.00,WeatherDisplay:10.34,2013-05-11 19:44:00,
2013-05-11 15:49:00,61.5,59.8,29.84,NNW,329,0.0,3.0,94,0.00,OVC,OVC,0.00,WeatherDisplay:10.34,2013-05-11 19:49:00,
2013-05-11 15:54:00,61.5,59.8,29.84,NW,322,0.0,2.0,94,0.00,OVC,OVC,0.00,WeatherDisplay:10.34,2013-05-11 19:54:00,
2013-05-11 15:59:00,61.5,59.8,29.84,SW,214,3.0,6.0,94,0.00,OVC,OVC,0.00,WeatherDisplay:10.34,2013-05-11 19:59:00,
2013-05-11 16:04:00,61.5,60.1,29.84,SW,220,3.0,3.0,95,0.00,OVC,OVC,0.00,WeatherDisplay:10.34,2013-05-11 20:04:00,
2013-05-11 16:09:00,61.7,60.3,29.84,SSW,201,3.0,6.0,95,0.00,OVC,OVC,0.00,WeatherDisplay:10.34,2013-05-11 20:09:00,
2013-05-11 16:14:00,61.7,60.3,29.84,SSE,159,4.0,5.0,95,0.00,OVC,OVC,0.00,WeatherDisplay:10.34,2013-05-11 20:14:00,
2013-05-11 16:19:00,61.9,60.4,29.84,South,186,4.0,6.0,95,0.00,OVC,OVC,0.00,WeatherDisplay:10.34,2013-05-11 20:19:00,
2013-05-11 16:24:00,62.1,60.6,29.84,NW,305,4.0,6.0,95,0.00,OVC,OVC,0.00,WeatherDisplay:10.34,2013-05-11 20:24:00,
2013-05-11 16:29:00,62.2,60.8,29.84,NNW,328,0.0,0.0,95,0.00,OVC,OVC,0.00,WeatherDisplay:10.34,2013-05-11 20:29:00,
2013-05-11 16:34:00,62.2,60.8,29.84,South,191,4.0,6.0,95,0.00,OVC,OVC,0.00,WeatherDisplay:10.34,2013-05-11 20:34:00,
2013-05-11 16:39:00,62.2,61.1,29.84,WNW,282,5.0,8.0,96,0.00,OVC,OVC,0.00,WeatherDisplay:10.34,2013-05-11 20:39:00,
2013-05-11 16:44:00,62.2,61.1,29.84,WNW,283,4.0,7.0,96,0.00,OVC,OVC,0.00,WeatherDisplay:10.34,2013-05-11 20:44:00,
2013-05-11 16:49:00,62.2,61.1,29.84,SW,217,4.0,8.0,96,0.00,OVC,OVC,0.00,WeatherDisplay:10.34,2013-05-11 20:49:00,
2013-05-11 16:54:00,62.2,61.1,29.84,West,278,3.0,3.0,96,0.00,OVC,OVC,0.00,WeatherDisplay:10.34,2013-05-11 20:54:00,
2013-05-11 16:59:00,62.2,61.1,29.84,SW,218,5.0,7.0,96,0.00,OVC,OVC,0.00,WeatherDisplay:10.34,2013-05-11 20:59:00,
2013-05-11 17:04:00,62.2,61.1,29.84,WSW,252,4.0,9.0,96,0.00,BKN,BKN,0.00,WeatherDisplay:10.34,2013-05-11 21:04:00,
2013-05-11 17:09:00,62.1,60.6,29.84,West,273,3.0,7.0,95,0.00,BKN,BKN,0.00,WeatherDisplay:10.34,2013-05-11 21:09:00,
2013-05-11 17:14:00,62.1,60.6,29.84,WSW,241,0.0,3.0,95,0.00,BKN,BKN,0.00,WeatherDisplay:10.34,2013-05-11 21:14:00,
2013-05-11 17:19:00,62.1,60.6,29.81,WSW,240,0.0,5.0,95,0.00,BKN,BKN,0.00,WeatherDisplay:10.34,2013-05-11 21:19:00,
2013-05-11 17:24:00,62.1,60.6,29.81,SSW,208,4.0,7.0,95,0.00,BKN,BKN,0.00,WeatherDisplay:10.34,2013-05-11 21:24:00,
2013-05-11 17:29:00,62.1,60.6,29.81,West,274,0.0,2.0,95,0.00,BKN,BKN,0.00,WeatherDisplay:10.34,2013-05-11 21:29:00,
2013-05-11 17:34:00,62.1,60.6,29.84,WSW,239,4.0,7.0,95,0.00,BKN,BKN,0.00,WeatherDisplay:10.34,2013-05-11 21:34:00,
2013-05-11 17:39:00,61.9,60.4,29.84,SSW,192,0.0,3.0,95,0.00,BKN,BKN,0.00,WeatherDisplay:10.34,2013-05-11 21:39:00,
2013-05-11 17:44:00,61.9,60.4,29.84,South,182,3.0,6.0,95,0.00,BKN,BKN,0.00,WeatherDisplay:10.34,2013-05-11 21:44:00,
2013-05-11 17:49:00,61.9,60.4,29.81,WSW,244,0.0,3.0,95,0.00,BKN,BKN,0.00,WeatherDisplay:10.34,2013-05-11 21:49:00,
2013-05-11 17:54:00,61.9,60.4,29.81,SSE,162,3.0,3.0,95,0.00,BKN,BKN,0.00,WeatherDisplay:10.34,2013-05-11 21:54:00,
2013-05-11 17:59:00,61.9,60.7,29.81,South,187,4.0,6.0,96,0.00,BKN,BKN,0.00,WeatherDisplay:10.34,2013-05-11 21:59:00,
2013-05-11 18:04:00,61.9,60.7,29.84,West,266,3.0,7.0,96,0.00,OVC,OVC,0.00,WeatherDisplay:10.34,2013-05-11 22:04:00,
2013-05-11 18:09:00,61.9,60.7,29.84,SSW,202,6.0,8.0,96,0.00,OVC,OVC,0.00,WeatherDisplay:10.34,2013-05-11 22:09:00,
2013-05-11 18:14:00,61.7,60.5,29.84,North,3,0.0,5.0,96,0.00,OVC,OVC,0.00,WeatherDisplay:10.34,2013-05-11 22:14:00,
2013-05-11 18:19:00,61.7,60.5,29.84,South,181,5.0,7.0,96,0.00,OVC,OVC,0.00,WeatherDisplay:10.34,2013-05-11 22:19:00,
2013-05-11 18:24:00,61.7,60.5,29.84,SW,234,4.0,7.0,96,0.00,OVC,OVC,0.00,WeatherDisplay:10.34,2013-05-11 22:24:00,
2013-05-11 18:29:00,61.5,60.4,29.84,South,181,5.0,10.0,96,0.00,OVC,OVC,0.00,WeatherDisplay:10.34,2013-05-11 22:29:00,
2013-05-11 18:34:00,61.5,60.4,29.84,NNE,16,3.0,7.0,96,0.00,OVC,OVC,0.00,WeatherDisplay:10.34,2013-05-11 22:34:00,
2013-05-11 18:39:00,61.3,60.2,29.84,SSE,164,3.0,6.0,96,0.00,OVC,OVC,0.00,WeatherDisplay:10.34,2013-05-11 22:39:00,
2013-05-11 18:44:00,61.3,60.2,29.84,SSE,160,3.0,7.0,96,0.00,OVC,OVC,0.00,WeatherDisplay:10.34,2013-05-11 22:44:00,
2013-05-11 18:49:00,61.2,60.0,29.84,WNW,291,4.0,7.0,96,0.00,OVC,OVC,0.00,WeatherDisplay:10.34,2013-05-11 22:49:00,
2013-05-11 18:54:00,61.2,60.0,29.84,NNW,338,4.0,7.0,96,0.00,OVC,OVC,0.00,WeatherDisplay:10.34,2013-05-11 22:54:00,
2013-05-11 18:59:00,61.0,59.8,29.84,West,277,6.0,10.0,96,0.00,OVC,OVC,0.00,WeatherDisplay:10.34,2013-05-11 22:59:00,
2013-05-11 19:04:00,60.8,59.7,29.84,WSW,242,4.0,8.0,96,0.00,BKN,BKN,0.00,WeatherDisplay:10.34,2013-05-11 23:04:00,
2013-05-11 19:09:00,60.6,59.5,29.84,West,277,5.0,7.0,96,0.00,BKN,BKN,0.00,WeatherDisplay:10.34,2013-05-11 23:09:00,
2013-05-11 19:14:00,60.6,59.5,29.84,West,271,4.0,6.0,96,0.00,BKN,BKN,0.00,WeatherDisplay:10.34,2013-05-11 23:14:00,
2013-05-11 19:19:00,60.6,59.5,29.84,WSW,242,6.0,10.0,96,0.00,BKN,BKN,0.00,WeatherDisplay:10.34,2013-05-11 23:19:00,
2013-05-11 19:24:00,60.6,59.5,29.84,SSE,161,3.0,3.0,96,0.00,BKN,BKN,0.00,WeatherDisplay:10.34,2013-05-11 23:24:00,
2013-05-11 19:29:00,60.4,59.3,29.84,NW,315,3.0,3.0,96,0.00,BKN,BKN,0.00,WeatherDisplay:10.34,2013-05-11 23:29:00,
2013-05-11 19:34:00,60.4,59.3,29.84,WSW,246,5.0,8.0,96,0.00,BKN,BKN,0.00,WeatherDisplay:10.34,2013-05-11 23:34:00,
2013-05-11 19:39:00,60.3,59.1,29.84,SW,223,0.0,6.0,96,0.00,BKN,BKN,0.00,WeatherDisplay:10.34,2013-05-11 23:39:00,
2013-05-11 19:44:00,60.3,59.1,29.84,NW,321,3.0,9.0,96,0.00,BKN,BKN,0.00,WeatherDisplay:10.34,2013-05-11 23:44:00,
2013-05-11 19:49:00,60.1,58.9,29.84,WNW,282,3.0,6.0,96,0.00,BKN,BKN,0.00,WeatherDisplay:10.34,2013-05-11 23:49:00,
2013-05-11 19:54:00,60.1,58.9,29.84,West,274,4.0,7.0,96,0.00,BKN,BKN,0.00,WeatherDisplay:10.34,2013-05-11 23:54:00,
2013-05-11 19:59:00,60.1,58.9,29.84,West,281,4.0,6.0,96,0.00,BKN,BKN,0.00,WeatherDisplay:10.34,2013-05-11 23:59:00,
2013-05-11 20:04:00,60.1,58.9,29.84,WSW,248,4.0,6.0,96,0.00,OVC,OVC,0.00,WeatherDisplay:10.34,2013-05-12 00:04:00,
2013-05-11 20:09:00,59.9,58.8,29.84,West,277,0.0,5.0,96,0.00,OVC,OVC,0.00,WeatherDisplay:10.34,2013-05-12 00:09:00,
2013-05-11 20:14:00,59.9,58.8,29.84,WNW,294,3.0,3.0,96,0.00,OVC,OVC,0.00,WeatherDisplay:10.34,2013-05-12 00:14:00,
2013-05-11 20:19:00,59.9,58.8,29.84,South,191,0.0,3.0,96,0.00,OVC,OVC,0.00,WeatherDisplay:10.34,2013-05-12 00:19:00,
2013-05-11 20:24:00,59.9,58.8,29.84,SW,227,3.0,3.0,96,0.00,OVC,OVC,0.00,WeatherDisplay:10.34,2013-05-12 00:24:00,
2013-05-11 20:29:00,59.9,58.8,29.84,West,266,5.0,7.0,96,0.00,OVC,OVC,0.00,WeatherDisplay:10.34,2013-05-12 00:29:00,
2013-05-11 20:34:00,59.7,58.6,29.87,WSW,241,4.0,6.0,96,0.00,OVC,OVC,0.00,WeatherDisplay:10.34,2013-05-12 00:34:00,
2013-05-11 20:39:00,59.7,58.6,29.87,WSW,256,4.0,7.0,96,0.00,OVC,OVC,0.00,WeatherDisplay:10.34,2013-05-12 00:39:00,
2013-05-11 20:44:00,59.7,58.6,29.87,NW,323,0.0,3.0,96,0.00,OVC,OVC,0.00,WeatherDisplay:10.34,2013-05-12 00:44:00,
2013-05-11 20:49:00,59.7,58.6,29.84,SW,234,0.0,6.0,96,0.00,OVC,OVC,0.00,WeatherDisplay:10.34,2013-05-12 00:49:00,
2013-05-11 20:54:00,59.5,58.4,29.84,SSW,194,3.0,5.0,96,0.00,OVC,OVC,0.00,WeatherDisplay:10.34,2013-05-12 00:54:00,
2013-05-11 20:59:00,59.4,58.2,29.84,West,279,4.0,5.0,96,0.00,OVC,OVC,0.00,WeatherDisplay:10.34,2013-05-12 00:59:00,
2013-05-11 21:04:00,59.4,58.2,29.84,SSE,165,3.0,6.0,96,0.00,BKN,BKN,0.00,WeatherDisplay:10.34,2013-05-12 01:04:00,
2013-05-11 21:09:00,59.4,58.2,29.84,WSW,242,4.0,5.0,96,0.00,BKN,BKN,0.00,WeatherDisplay:10.34,2013-05-12 01:09:00,
2013-05-11 21:14:00,59.2,58.0,29.84,WSW,257,3.0,3.0,96,0.00,BKN,BKN,0.00,WeatherDisplay:10.34,2013-05-12 01:14:00,
2013-05-11 21:19:00,59.2,58.0,29.84,WSW,251,4.0,6.0,96,0.00,BKN,BKN,0.00,WeatherDisplay:10.34,2013-05-12 01:19:00,
2013-05-11 21:24:00,59.2,58.0,29.84,WSW,240,0.0,0.0,96,0.00,BKN,BKN,0.00,WeatherDisplay:10.34,2013-05-12 01:24:00,
2013-05-11 21:29:00,59.4,58.2,29.84,SW,230,4.0,7.0,96,0.00,BKN,BKN,0.00,WeatherDisplay:10.34,2013-05-12 01:29:00,
2013-05-11 21:34:00,59.4,58.2,29.84,West,263,3.0,3.0,96,0.00,BKN,BKN,0.00,WeatherDisplay:10.34,2013-05-12 01:34:00,
2013-05-11 21:39:00,59.4,58.2,29.84,WNW,296,0.0,3.0,96,0.00,BKN,BKN,0.00,WeatherDisplay:10.34,2013-05-12 01:39:00,
2013-05-11 21:44:00,59.4,58.2,29.84,West,279,0.0,3.0,96,0.00,BKN,BKN,0.00,WeatherDisplay:10.34,2013-05-12 01:44:00,
2013-05-11 21:49:00,59.4,58.2,29.84,West,277,4.0,6.0,96,0.00,BKN,BKN,0.00,WeatherDisplay:10.34,2013-05-12 01:49:00,
2013-05-11 21:54:00,59.4,58.2,29.84,WSW,245,0.0,0.0,96,0.00,BKN,BKN,0.00,WeatherDisplay:10.34,2013-05-12 01:54:00,
2013-05-11 21:59:00,59.4,58.2,29.84,WNW,292,0.0,2.0,96,0.00,BKN,BKN,0.00,WeatherDisplay:10.34,2013-05-12 01:59:00,
2013-05-11 22:04:00,59.4,58.2,29.84,West,262,3.0,6.0,96,0.00,CLR,CLR,0.00,WeatherDisplay:10.34,2013-05-12 02:04:00,
2013-05-11 22:09:00,59.4,58.2,29.84,ENE,63,0.0,3.0,96,0.00,CLR,CLR,0.00,WeatherDisplay:10.34,2013-05-12 02:09:00,
2013-05-11 22:14:00,59.4,58.2,29.84,NE,53,0.0,0.0,96,0.00,CLR,CLR,0.00,WeatherDisplay:10.34,2013-05-12 02:14:00,
2013-05-11 22:19:00,59.4,58.2,29.84,ENE,65,0.0,3.0,96,0.00,CLR,CLR,0.00,WeatherDisplay:10.34,2013-05-12 02:19:00,
2013-05-11 22:24:00,59.4,58.2,29.84,WSW,243,3.0,3.0,96,0.00,CLR,CLR,0.00,WeatherDisplay:10.34,2013-05-12 02:24:00,
2013-05-11 22:29:00,59.4,58.2,29.84,West,274,0.0,3.0,96,0.00,CLR,CLR,0.00,WeatherDisplay:10.34,2013-05-12 02:29:00,
2013-05-11 22:34:00,59.4,58.2,29.83,SSW,212,0.0,3.0,96,0.00,CLR,CLR,0.00,WeatherDisplay:10.34,2013-05-12 02:34:00,
2013-05-11 22:39:00,59.4,58.2,29.83,West,263,4.0,5.0,96,0.00,CLR,CLR,0.00,WeatherDisplay:10.34,2013-05-12 02:39:00,
2013-05-11 22:44:00,59.4,58.2,29.83,West,264,4.0,7.0,96,0.00,CLR,CLR,0.00,WeatherDisplay:10.34,2013-05-12 02:44:00,
2013-05-11 22:49:00,59.4,58.2,29.83,West,265,3.0,5.0,96,0.00,CLR,CLR,0.00,WeatherDisplay:10.34,2013-05-12 02:49:00,
2013-05-11 22:54:00,59.4,58.2,29.83,WSW,239,3.0,6.0,96,0.00,CLR,CLR,0.00,WeatherDisplay:10.34,2013-05-12 02:54:00,
2013-05-11 22:59:00,59.4,58.2,29.83,SW,222,3.0,5.0,96,0.00,CLR,CLR,0.00,WeatherDisplay:10.34,2013-05-12 02:59:00,
2013-05-11 23:04:00,59.4,58.2,29.83,South,181,4.0,6.0,96,0.00,BKN,BKN,0.00,WeatherDisplay:10.34,2013-05-12 03:04:00,
2013-05-11 23:09:00,59.2,58.3,29.83,WSW,237,3.0,3.0,97,0.00,BKN,BKN,0.00,WeatherDisplay:10.34,2013-05-12 03:09:00,
2013-05-11 23:14:00,59.2,58.3,29.83,South,187,3.0,6.0,97,0.00,BKN,BKN,0.00,WeatherDisplay:10.34,2013-05-12 03:14:00,
2013-05-11 23:19:00,59.2,58.3,29.83,WSW,240,0.0,0.0,97,0.00,BKN,BKN,0.00,WeatherDisplay:10.34,2013-05-12 03:19:00,
2013-05-11 23:24:00,59.2,58.3,29.83,SW,222,3.0,3.0,97,0.00,BKN,BKN,0.00,WeatherDisplay:10.34,2013-05-12 03:24:00,
2013-05-11 23:29:00,59.0,58.2,29.83,SW,219,0.0,3.0,97,0.00,BKN,BKN,0.00,WeatherDisplay:10.34,2013-05-12 03:29:00,
2013-05-11 23:34:00,59.0,58.2,29.83,WSW,243,0.0,0.0,97,0.00,BKN,BKN,0.00,WeatherDisplay:10.34,2013-05-12 03:34:00,
2013-05-11 23:39:00,59.0,58.2,29.83,WSW,243,0.0,0.0,97,0.00,BKN,BKN,0.00,WeatherDisplay:10.34,2013-05-12 03:39:00,
2013-05-11 23:44:00,58.8,57.7,29.83,West,264,0.0,3.0,96,0.00,BKN,BKN,0.00,WeatherDisplay:10.34,2013-05-12 03:44:00,
2013-05-11 23:49:00,58.8,57.7,29.80,West,264,0.0,3.0,96,0.00,BKN,BKN,0.00,WeatherDisplay:10.34,2013-05-12 03:49:00,
2013-05-11 23:54:00,58.8,57.7,29.80,West,264,0.0,0.0,96,0.00,BKN,BKN,0.00,WeatherDisplay:10.34,2013-05-12 03:54:00,
2013-05-11 23:59:00,58.6,57.5,29.80,West,264,0.0,0.0,96,0.00,BKN,BKN,0.00,WeatherDisplay:10.34,2013-05-12 03:59:00,